Location: Davidschlag
(48.4333°N, 14.2833°E)
Time: 05:51:29
(UTC+00:00)

Cosmos 2034 Rocket - Pass Details

Date: 27 February 2020
Orbit: 958 x 1000 km, 82.9° (Epoch: 28 March)

Event Time Altitude Azimuth Distance (km) Brightness Sun altitude
Rises 18:26:22 0° 185° (S) 3,633 7.0 -17.9°
Reaches altitude 10° 18:28:51 10° 185° (S) 2,688 6.3 -18.3°
Maximum altitude 18:35:00 86° 98° (E) 968 3.9 -19.3°
Drops below altitude 10° 18:41:12 10° 10° (N) 2,705 6.3 -20.4°
Sets 18:43:42 0° 10° (N) 3,657 7.0 -20.8°
